This is the latest recevied weather packets stored in our database for station/object SR9WXM. If no packets are shown the sender has not sent any weather packets the latest 1 day(s).
| Time | Temp. | Humidity | Pressure | Rain* | Wind** | Luminosity | Snow |
|---|---|---|---|---|---|---|---|
| 1777971470 | 17.22° C | 100% | 0 hPa | - | 6.71 m/s, 193° | - | - |
| 1777971230 | 17.22° C | 100% | 0 hPa | - | 7.6 m/s, 196° | - | - |
| 1777970989 | 17.22° C | 100% | 0 hPa | - | 6.26 m/s, 207° | - | - |
| 1777970750 | 17.22° C | 100% | 0 hPa | - | 6.26 m/s, 202° | - | - |
| 1777970516 | 17.22° C | 100% | 0 hPa | - | 9.39 m/s, 203° | - | - |
| 1777970268 | 17.22° C | 100% | 0 hPa | - | 6.26 m/s, 204° | - | - |
| 1777970028 | 17.22° C | 100% | 0 hPa | - | 7.15 m/s, 197° | - | - |
| 1777969787 | 17.22° C | 100% | 0 hPa | - | 6.26 m/s, 209° | - | - |
| 1777969547 | 17.22° C | 100% | 0 hPa | - | 7.6 m/s, 199° | - | - |
| 1777969305 | 16.67° C | 100% | 0 hPa | - | 6.71 m/s, 202° | - | - |
| 1777969065 | 16.67° C | 100% | 0 hPa | - | 6.26 m/s, 208° | - | - |
| 1777968825 | 16.67° C | 100% | 0 hPa | - | 6.26 m/s, 205° | - | - |
| 1777968586 | 16.67° C | 100% | 0 hPa | - | 4.92 m/s, 197° | - | - |
| 1777968345 | 16.11° C | 100% | 0 hPa | - | 6.71 m/s, 204° | - | - |
| 1777968103 | 16.11° C | 100% | 0 hPa | - | 5.81 m/s, 201° | - | - |
| 1777967863 | 16.11° C | 100% | 0 hPa | - | 4.92 m/s, 202° | - | - |
| 1777967623 | 16.11° C | 100% | 0 hPa | - | 6.26 m/s, 197° | - | - |
| 1777967383 | 16.11° C | 100% | 0 hPa | - | 7.15 m/s, 202° | - | - |
| 1777967143 | 15.56° C | 100% | 0 hPa | - | 6.26 m/s, 198° | - | - |
| 1777966901 | 15.56° C | 100% | 0 hPa | - | 6.71 m/s, 207° | - | - |
| 1777966661 | 15° C | 100% | 0 hPa | - | 5.81 m/s, 199° | - | - |
| 1777966421 | 14.44° C | 100% | 0 hPa | - | 4.47 m/s, 211° | - | - |
| 1777966181 | 14.44° C | 100% | 0 hPa | - | 5.81 m/s, 199° | - | - |
| 1777965940 | 14.44° C | 100% | 0 hPa | - | 4.92 m/s, 205° | - | - |
| 1777965698 | 14.44° C | 100% | 0 hPa | - | 5.36 m/s, 201° | - | - |
* Rain since midnight (hover to see other rain measurements)
** Current wind speed in m/s (hover to see current wind gust speed)